Flag for Norway

Past Weather in North Cape, Norway — Yesterday and Last 2 Weeks

Now
46 °F

Partly sunny.


Feels Like: 43 °F
Forecast: 48 / 47 °F
Wind: 7 mph from West

Location: Honningsvag / Valan

Current Time: Jul 9, 2020 at 11:50:43 pm

Latest Report: Jul 9, 2020 at 10:20 pm


Visibility: N/A

Pressure: 29.74 "Hg

Humidity: 87%

Dew Point: 43 °F

Location of North CapeLocation

Past Weather in North Cape — Graph

°F

North Cape Temperature Yesterday

Maximum temperature yesterday: 48 °F (at 5:20 am)
Minimum temperature yesterday: 46 °F (at 11:50 am)
Average temperature yesterday: 47 °F

High & Low Weather Summary for the Past Weeks

 TemperatureHumidityPressure
High59 °F (Jun 25, 12:50 pm)100% (Jul 1, 8:50 am)30.18 "Hg (Jul 1, 8:50 am)
Low41 °F (Jun 28, 7:20 pm)63% (Jun 25, 9:50 am)29.09 "Hg (Jul 1, 6:50 pm)
Average46 °F83%29.60 "Hg
* Reported Jun 25 5:20 am — Jul 9 10:20 pm, North Cape. Weather by CustomWeather, © 2020

Note: Actual official high and low records may vary slightly from our data, if they occured in-between our weather recording intervals... More about our weather records

North Cape Weather History for the Previous 24 Hours

Scroll right to see more
 ConditionsComfort  
Time TempWeatherWind HumidityBarometerVisibility
10:20 pm
Thu, Jul 9
46 °FPartly sunny.7 mph87%29.74 "HgN/A
9:50 pm46 °FPartly sunny.10 mph87%29.77 "HgN/A
9:20 pm48 °FPartly sunny.7 mph82%29.77 "HgN/A
8:50 pm48 °FPartly sunny.7 mph82%29.77 "HgN/A
7:50 pm48 °FPartly sunny.13 mph82%29.77 "HgN/A
6:50 pm48 °FPartly sunny.14 mph87%29.77 "HgN/A
5:50 pm48 °FPartly sunny.16 mph82%29.77 "HgN/A
4:50 pm48 °FPartly sunny.15 mph87%29.77 "HgN/A
1:50 pm50 °FPartly sunny.12 mph82%29.77 "HgN/A
1:20 pm50 °FPartly sunny.10 mph88%29.74 "HgN/A
12:50 pm50 °FPartly sunny.15 mph88%29.74 "HgN/A
11:50 am48 °FScattered showers. Partly sunny.15 mph87%29.74 "HgN/A
11:20 am48 °FScattered showers. Partly sunny.13 mph87%29.74 "HgN/A
10:50 am48 °FScattered showers. Partly sunny.13 mph87%29.71 "HgN/A
10:20 am48 °FScattered showers. Partly sunny.7 mph87%29.71 "HgN/A
9:50 am46 °FScattered showers. Partly sunny.8 mph93%29.71 "HgN/A
9:20 am46 °FScattered showers. Partly sunny.9 mph93%29.71 "HgN/A
8:50 am46 °FSprinkles. Partly sunny.10 mph93%29.68 "HgN/A
8:20 am46 °FSprinkles. Partly sunny.9 mph93%29.68 "HgN/A
7:50 am46 °FSprinkles. Partly sunny.12 mph93%29.68 "HgN/A
7:20 am46 °FSprinkles. Partly sunny.9 mph93%29.68 "HgN/A
6:50 am46 °FSprinkles. Partly sunny.9 mph93%29.68 "HgN/A
6:20 am46 °FSprinkles. Partly sunny.7 mph93%29.68 "HgN/A
5:50 am46 °FSprinkles. Partly sunny.7 mph93%29.68 "HgN/A
5:20 am48 °FSprinkles. Partly sunny.9 mph87%29.65 "HgN/A
Weather by CustomWeather, © 2020

See weather overview